SCP
0 0 0 0 0 0 0 0 0 0 0 0 0 0 0 0 0 0 0 0 0 0 0 0 0 0 0 0 0 0 0 0 0 0 0 0 0 0
0 0 0 0 0 0 0 0 0 0 0 0 0 0 0 0 0 0 0 0 0 0 0 0 0 0 0 0 0 0 0 0 0 0 0 0 0 0
0 0 0 0 0 0 0 0 0 0 0 0 0 0 0 0 0 0 0 0 0 0 0 0 0 0 0 0 0 0 0 0 0 0 0 0 0 0
0 0 0 0 0 0 0 0 0 0 0 0 0 0 0 0 0 0 0 0 0 0 0 0 0 0 0 0 0 0 0 0 0 0 0 0 0 0
0 0 0 0 0 0 0 0 0 0 0 0 0 0 0 0 0 0 0 0 0 0 0 0 0 0 0 0 0 0 0 0 0 0 0 0 0 0
0 0 0 0 0 0 0 0 0 0 0 0 0 0 0 0 0 0 0 0 0 0 0 0 0 0 0 0 0 0 0 0 0 0 0 0 0 0
0 0 0 0 0 0 0 0 0 0 0 0 0 0 0 0 0 0 0 0 0 0 0 0 0 0 0 0 0 0 0 0 0 0 0 0 0 0
0 0 0 0 0 0 0 0 0 0 0 0 0 0 0 0 0 0 0 0 0 0 0 0 0 0 0 0 0 0 0 0 0 0 0 0 0 0
0 0 0 0 0 0 0 0 0 0 0 0 0 0 0 0 0 0 0 0 0 0 0 0 0 0 0 0 0 0 0 0 0 0 0 0 0 0
0 0 0 0 0 0 0 0 0 0 0 0 0 0 0 0 0 0 0 0 0 0 0 0 0 0 0 0 0 0 0 0 0 0 0 0 0 0
0 0 0 0 0 0 0 0 0 0 0 0 0 0 0 0 0 0 0 0 0 0 0 0 0 0 0 0 0 0 0 0 0 0 0 0 0 0
0 0 0 0 0 0 0 0 0 0 0 0 0 0 0 0 0 0 0 0 0 0 0 0 0 0 0 0 0 0 0 0 0 0 0 0 0 0
0 0 0 0 0 0 0 0 0 0 0 0 0 0 0 0 0 0 0 0 0 0 0 0 0 0 0 0 0 0 0 0 0 0 0 0 0 0
0 0 0 0 0 0 0 0 0 0 0 0 0 0 0 0 0 0 0 0 0 0 0 0 0 0 0 0 0 0 0 0 0 0 0 0 0 -0
0 0 0 0 0 0 0 0 0 0 0 0 0 0 0 0 0 0 0 0 0 0 0 0 0 0 0 0 0 0 0 0 0 0 0 0 0 0
0 0 0 0 0 0 0 0 0 0 0 0 0 0 0 0 0 0 0 0 0 0 0 0 0 0 0 0 0 0 0 0 0 0 0 0 0 0
0 0 0 0 0 0 0 0 0 0 0 0 0 0 0 0 0 0 0 0 0 0 0 0 0 0 0 0 0 0 0 0 0 0 0 0 0 0
0 0 0 0 0 0 0 0 0 0 0 0 0 0 0 0 0 0 0 0 0 0 0 0 0 0 0 0 0 0 0 0 0 0 0 0 0 0
0 0 0 0 0 0 0 0 0 0 0 0 0 0 0 0 0 0 0 0 0 0 0 0 0 0 0 0 0 0 0 0 0 0 0 0 0 0
0 0 0 0 0 0 0 0 0 0 0 0 0 0 0 0 0 0 0 0 0 0 0 0 0 0 0 0 0 0 0 0 -0 0 0 0 0 -0
0 0 0 0 0 0 0 0 0 0 0 0 0 0 0 0 0 0 0 0 0 0 0 0 0 0 0 0 0 0 -0 0 -0 -0 0 0 0 0
0 0 0 0 0 0 0 0 0 0 0 0 0 0 0 0 0 0 0 0 0 0 0 0 0 0 0 0 0 0 0 -0 0 0 0 -0 0 0
0 0 0 0 0 0 0 0 0 0 0 0 0 0 0 0 0 0 0 0 0 0 0 0 0 0 0 0 0 0 0 -0 -0 0 0 0 0 -0
Wind_Speed_500mb
79 70 63 56 49 43 39 34 28 21 20 22 24 24 23 25 28 31 36 40 44 49 52 55 59 63 68 71 76 80 88 84 77 78 80 82 87 93
77 69 62 55 50 44 36 31 22 12 17 22 23 27 26 28 32 34 39 43 48 53 58 59 63 68 71 74 73 82 88 80 74 77 78 81 88 90
76 68 61 56 50 44 36 26 16 15 19 24 28 30 29 32 37 41 45 49 53 56 60 64 68 72 76 67 80 85 88 78 81 81 78 82 85 86
76 69 63 58 51 44 33 19 18 19 20 27 32 32 32 36 39 44 49 54 59 61 68 73 77 79 66 75 86 87 90 82 87 76 79 80 82 83
76 71 67 61 54 43 23 22 21 21 24 30 33 35 35 39 44 48 52 58 63 69 74 77 83 75 73 81 86 87 88 89 74 78 78 77 80 84
76 71 66 60 52 32 24 28 25 23 31 31 35 37 40 45 50 54 58 62 69 73 78 76 80 80 81 85 85 88 84 72 79 78 74 77 82 80
77 70 66 61 46 27 31 31 26 34 33 33 38 41 45 49 53 58 64 69 74 77 74 86 78 82 89 89 82 81 69 77 77 70 74 80 79 79
80 73 68 60 44 30 35 31 32 38 34 36 43 49 50 53 57 61 67 70 82 78 76 92 74 88 89 81 79 63 78 75 63 77 79 78 76 77
79 78 72 59 35 28 38 35 46 42 38 44 53 52 53 54 60 65 69 73 78 81 78 97 85 89 85 87 88 76 70 58 75 80 76 73 76 73
79 76 69 54 29 37 45 45 50 47 48 49 56 55 56 59 63 67 70 74 77 76 64 81 83 101 98 88 87 63 61 70 79 81 69 75 68 65
77 72 67 53 40 57 49 54 58 60 52 51 57 58 59 61 61 62 62 62 71 74 61 71 74 75 105 104 63 67 69 78 81 67 73 64 59 65
73 71 69 59 66 62 55 54 53 55 52 55 60 61 61 62 58 53 52 56 61 71 45 68 80 65 68 106 67 96 95 90 67 71 61 54 57 64
74 76 68 67 69 63 55 51 53 47 54 59 61 62 63 61 54 54 54 53 57 63 65 55 78 82 70 75 99 92 86 86 76 71 53 53 58 56
73 73 69 66 71 59 55 53 51 54 56 55 56 54 56 59 57 56 58 59 59 61 62 58 61 57 61 72 82 86 80 74 69 48 65 59 60 49
73 67 68 69 62 58 49 48 51 51 52 54 54 53 54 59 59 57 57 58 58 57 56 56 57 55 50 59 70 75 69 72 44 66 61 66 58 47
68 74 80 70 63 57 51 51 49 53 54 54 56 57 56 57 55 55 54 54 56 54 52 47 46 45 49 54 57 62 52 47 61 60 63 60 52 38
75 76 68 65 64 59 55 54 50 51 53 55 54 54 53 50 52 51 51 51 49 52 49 40 37 40 43 45 49 39 43 50 55 59 62 63 51 47
68 63 64 66 64 62 60 57 55 55 53 52 51 47 46 48 49 49 48 46 46 44 40 38 41 44 42 38 27 33 38 49 54 57 61 57 59 51
57 62 65 59 60 63 63 59 53 50 49 46 45 46 48 48 47 46 45 43 39 37 34 36 37 35 38 44 45 21 38 44 54 59 61 54 58 54
55 54 54 56 55 53 52 51 49 48 45 46 47 48 47 44 43 44 42 38 35 33 33 33 32 29 31 41 51 37 26 38 44 57 56 56 51 49
47 47 44 45 44 43 43 44 44 46 47 47 48 47 44 43 42 41 39 35 34 33 34 32 27 34 35 39 45 44 31 27 31 44 49 55 59 63
37 40 40 41 41 41 42 44 46 47 47 48 47 46 44 43 40 39 37 35 35 34 34 33 33 33 33 36 43 46 43 36 29 31 30 29 43 48
36 39 40 41 42 44 47 47 45 46 48 47 48 48 45 42 38 39 38 38 35 34 35 35 33 32 32 34 39 43 43 39 42 39 27 28 31 32
Wind_Direction_500mb
225 224 229 233 227 225 220 215 216 199 218 248 260 264 267 289 300 309 312 316 317 316 317 319 322 323 324 324 321 320 320 322 321 322 321 320 319 318
221 224 226 222 220 215 211 206 205 254 230 259 262 275 281 293 299 306 310 315 317 319 321 323 324 324 323 320 317 319 320 321 321 321 319 319 318 316
221 222 220 216 212 208 201 204 251 230 250 262 267 276 285 293 299 306 311 314 316 317 319 321 323 323 321 316 319 320 321 321 324 320 319 318 316 313
220 216 213 209 205 199 203 236 222 241 248 254 263 274 284 291 298 301 307 311 313 317 319 320 320 319 318 318 322 321 322 321 325 320 317 316 313 311
219 214 211 205 200 199 225 229 229 241 257 257 267 277 286 294 299 303 307 309 312 316 316 315 314 317 316 320 321 322 321 323 319 317 316 313 311 311
215 212 208 201 199 213 237 228 227 246 253 262 272 283 292 297 300 303 304 308 308 310 312 312 314 315 315 320 319 319 319 316 318 317 315 312 312 311
211 208 200 196 204 229 231 234 235 246 253 266 278 287 292 295 300 303 303 305 307 311 312 313 312 311 315 319 315 313 315 316 317 316 315 312 312 312
209 202 196 201 208 233 253 256 233 246 258 272 284 285 291 295 298 299 300 306 309 309 307 308 309 311 314 314 310 310 316 315 317 319 316 313 313 313
210 204 199 207 217 257 286 243 239 249 261 271 277 283 290 295 295 298 301 303 302 304 305 308 313 311 315 306 312 314 315 316 318 318 316 315 314 314
212 208 206 211 238 292 274 235 243 250 255 269 276 284 289 295 297 297 299 299 301 305 312 305 308 309 311 309 309 315 311 315 320 317 317 316 317 316
211 208 210 218 248 275 267 248 244 259 259 266 278 283 288 290 291 294 295 294 294 299 299 293 301 302 308 309 310 306 311 318 321 318 318 319 319 318
210 213 219 231 259 273 276 259 263 270 269 271 274 280 285 287 289 288 290 291 293 297 302 300 305 306 307 309 304 310 319 326 320 320 321 322 322 325
217 222 227 249 257 273 278 262 268 268 267 273 278 282 285 289 295 296 296 295 293 290 298 297 298 300 300 302 308 316 323 326 326 329 328 327 328 325
230 226 245 250 266 276 275 266 265 266 268 271 277 285 287 289 292 299 301 299 299 302 306 303 302 303 301 302 309 319 326 327 331 337 330 330 330 331
227 241 243 258 263 278 267 261 262 262 263 268 272 275 279 284 292 293 297 302 307 311 313 311 313 316 310 308 311 320 323 330 340 331 330 327 339 345
233 235 248 257 269 268 262 259 258 261 264 267 270 273 278 283 288 295 298 303 308 313 315 317 319 315 311 315 315 321 330 332 334 329 330 336 345 354
236 245 254 258 263 258 262 264 262 260 263 265 267 271 274 280 288 292 297 302 308 313 316 321 316 314 318 321 319 326 331 333 332 339 341 336 346 350
248 251 257 263 261 259 264 263 262 264 265 266 269 270 275 281 285 290 295 299 304 308 314 316 315 317 323 330 326 321 323 330 338 345 341 339 338 346
246 253 255 255 253 258 262 262 264 265 266 267 268 274 278 279 284 288 291 295 298 303 308 308 310 315 319 320 325 334 318 335 341 337 340 341 334 342
243 247 247 249 252 254 255 259 262 265 263 265 271 272 274 278 281 284 287 290 291 294 299 302 304 304 304 308 308 326 333 332 331 327 335 336 340 343
242 249 251 253 254 255 257 258 259 261 266 270 269 271 275 276 277 279 280 280 282 286 291 295 292 300 301 300 299 311 326 330 326 326 332 329 335 338
247 251 254 257 258 259 259 260 261 267 268 268 271 273 274 275 276 276 276 276 280 284 289 291 294 296 298 298 302 306 315 320 324 331 338 324 326 325
260 262 262 262 262 263 264 266 266 265 266 269 271 271 270 271 270 270 273 275 276 279 283 288 291 292 294 295 299 304 311 317 321 326 344 346 335 329
Wind_Speed_850mb
79 70 63 56 49 43 39 34 28 21 20 22 24 24 23 25 28 31 36 40 44 49 52 55 59 63 68 71 76 80 88 84 77 78 80 82 87 93
77 69 62 55 50 44 36 31 22 12 17 22 23 27 26 28 32 34 39 43 48 53 58 59 63 68 71 74 73 82 88 80 74 77 78 81 88 90
76 68 61 56 50 44 36 26 16 15 19 24 28 30 29 32 37 41 45 49 53 56 60 64 68 72 76 67 80 85 88 78 81 81 78 82 85 86
76 69 63 58 51 44 33 19 18 19 20 27 32 32 32 36 39 44 49 54 59 61 68 73 77 79 66 75 86 87 90 82 87 76 79 80 82 83
76 71 67 61 54 43 23 22 21 21 24 30 33 35 35 39 44 48 52 58 63 69 74 77 83 75 73 81 86 87 88 89 74 78 78 77 80 84
76 71 66 60 52 32 24 28 25 23 31 31 35 37 40 45 50 54 58 62 69 73 78 76 80 80 81 85 85 88 84 72 79 78 74 77 82 80
77 70 66 61 46 27 31 31 26 34 33 33 38 41 45 49 53 58 64 69 74 77 74 86 78 82 89 89 82 81 69 77 77 70 74 80 79 79
80 73 68 60 44 30 35 31 32 38 34 36 43 49 50 53 57 61 67 70 82 78 76 92 74 88 89 81 79 63 78 75 63 77 79 78 76 77
79 78 72 59 35 28 38 35 46 42 38 44 53 52 53 54 60 65 69 73 78 81 78 97 85 89 85 87 88 76 70 58 75 80 76 73 76 73
79 76 69 54 29 37 45 45 50 47 48 49 56 55 56 59 63 67 70 74 77 76 64 81 83 101 98 88 87 63 61 70 79 81 69 75 68 65
77 72 67 53 40 57 49 54 58 60 52 51 57 58 59 61 61 62 62 62 71 74 61 71 74 75 105 104 63 67 69 78 81 67 73 64 59 65
73 71 69 59 66 62 55 54 53 55 52 55 60 61 61 62 58 53 52 56 61 71 45 68 80 65 68 106 67 96 95 90 67 71 61 54 57 64
74 76 68 67 69 63 55 51 53 47 54 59 61 62 63 61 54 54 54 53 57 63 65 55 78 82 70 75 99 92 86 86 76 71 53 53 58 56
73 73 69 66 71 59 55 53 51 54 56 55 56 54 56 59 57 56 58 59 59 61 62 58 61 57 61 72 82 86 80 74 69 48 65 59 60 49
73 67 68 69 62 58 49 48 51 51 52 54 54 53 54 59 59 57 57 58 58 57 56 56 57 55 50 59 70 75 69 72 44 66 61 66 58 47
68 74 80 70 63 57 51 51 49 53 54 54 56 57 56 57 55 55 54 54 56 54 52 47 46 45 49 54 57 62 52 47 61 60 63 60 52 38
75 76 68 65 64 59 55 54 50 51 53 55 54 54 53 50 52 51 51 51 49 52 49 40 37 40 43 45 49 39 43 50 55 59 62 63 51 47
68 63 64 66 64 62 60 57 55 55 53 52 51 47 46 48 49 49 48 46 46 44 40 38 41 44 42 38 27 33 38 49 54 57 61 57 59 51
57 62 65 59 60 63 63 59 53 50 49 46 45 46 48 48 47 46 45 43 39 37 34 36 37 35 38 44 45 21 38 44 54 59 61 54 58 54
55 54 54 56 55 53 52 51 49 48 45 46 47 48 47 44 43 44 42 38 35 33 33 33 32 29 31 41 51 37 26 38 44 57 56 56 51 49
47 47 44 45 44 43 43 44 44 46 47 47 48 47 44 43 42 41 39 35 34 33 34 32 27 34 35 39 45 44 31 27 31 44 49 55 59 63
37 40 40 41 41 41 42 44 46 47 47 48 47 46 44 43 40 39 37 35 35 34 34 33 33 33 33 36 43 46 43 36 29 31 30 29 43 48
36 39 40 41 42 44 47 47 45 46 48 47 48 48 45 42 38 39 38 38 35 34 35 35 33 32 32 34 39 43 43 39 42 39 27 28 31 32
Wind_Direction_850mb
225 224 229 233 227 225 220 215 216 199 218 248 260 264 267 289 300 309 312 316 317 316 317 319 322 323 324 324 321 320 320 322 321 322 321 320 319 318
221 224 226 222 220 215 211 206 205 254 230 259 262 275 281 293 299 306 310 315 317 319 321 323 324 324 323 320 317 319 320 321 321 321 319 319 318 316
221 222 220 216 212 208 201 204 251 230 250 262 267 276 285 293 299 306 311 314 316 317 319 321 323 323 321 316 319 320 321 321 324 320 319 318 316 313
220 216 213 209 205 199 203 236 222 241 248 254 263 274 284 291 298 301 307 311 313 317 319 320 320 319 318 318 322 321 322 321 325 320 317 316 313 311
219 214 211 205 200 199 225 229 229 241 257 257 267 277 286 294 299 303 307 309 312 316 316 315 314 317 316 320 321 322 321 323 319 317 316 313 311 311
215 212 208 201 199 213 237 228 227 246 253 262 272 283 292 297 300 303 304 308 308 310 312 312 314 315 315 320 319 319 319 316 318 317 315 312 312 311
211 208 200 196 204 229 231 234 235 246 253 266 278 287 292 295 300 303 303 305 307 311 312 313 312 311 315 319 315 313 315 316 317 316 315 312 312 312
209 202 196 201 208 233 253 256 233 246 258 272 284 285 291 295 298 299 300 306 309 309 307 308 309 311 314 314 310 310 316 315 317 319 316 313 313 313
210 204 199 207 217 257 286 243 239 249 261 271 277 283 290 295 295 298 301 303 302 304 305 308 313 311 315 306 312 314 315 316 318 318 316 315 314 314
212 208 206 211 238 292 274 235 243 250 255 269 276 284 289 295 297 297 299 299 301 305 312 305 308 309 311 309 309 315 311 315 320 317 317 316 317 316
211 208 210 218 248 275 267 248 244 259 259 266 278 283 288 290 291 294 295 294 294 299 299 293 301 302 308 309 310 306 311 318 321 318 318 319 319 318
210 213 219 231 259 273 276 259 263 270 269 271 274 280 285 287 289 288 290 291 293 297 302 300 305 306 307 309 304 310 319 326 320 320 321 322 322 325
217 222 227 249 257 273 278 262 268 268 267 273 278 282 285 289 295 296 296 295 293 290 298 297 298 300 300 302 308 316 323 326 326 329 328 327 328 325
230 226 245 250 266 276 275 266 265 266 268 271 277 285 287 289 292 299 301 299 299 302 306 303 302 303 301 302 309 319 326 327 331 337 330 330 330 331
227 241 243 258 263 278 267 261 262 262 263 268 272 275 279 284 292 293 297 302 307 311 313 311 313 316 310 308 311 320 323 330 340 331 330 327 339 345
233 235 248 257 269 268 262 259 258 261 264 267 270 273 278 283 288 295 298 303 308 313 315 317 319 315 311 315 315 321 330 332 334 329 330 336 345 354
236 245 254 258 263 258 262 264 262 260 263 265 267 271 274 280 288 292 297 302 308 313 316 321 316 314 318 321 319 326 331 333 332 339 341 336 346 350
248 251 257 263 261 259 264 263 262 264 265 266 269 270 275 281 285 290 295 299 304 308 314 316 315 317 323 330 326 321 323 330 338 345 341 339 338 346
246 253 255 255 253 258 262 262 264 265 266 267 268 274 278 279 284 288 291 295 298 303 308 308 310 315 319 320 325 334 318 335 341 337 340 341 334 342
243 247 247 249 252 254 255 259 262 265 263 265 271 272 274 278 281 284 287 290 291 294 299 302 304 304 304 308 308 326 333 332 331 327 335 336 340 343
242 249 251 253 254 255 257 258 259 261 266 270 269 271 275 276 277 279 280 280 282 286 291 295 292 300 301 300 299 311 326 330 326 326 332 329 335 338
247 251 254 257 258 259 259 260 261 267 268 268 271 273 274 275 276 276 276 276 280 284 289 291 294 296 298 298 302 306 315 320 324 331 338 324 326 325
260 262 262 262 262 263 264 266 266 265 266 269 271 271 270 271 270 270 273 275 276 279 283 288 291 292 294 295 299 304 311 317 321 326 344 346 335 329